Regional Weather Roundup
Issued by NWS Bismarck, ND

Home | Current Version | Previous Version | Text Only | Print | Product List | Glossary On
Versions: 1 2 3 4 5 6 7 8 9 10 11 12 13 14 15 16 17 18 19 20 21 22 23 24 25 26 27 28 29 30 31 32 33 34 35 36 37 38 39 40 41 42 43 44 45 46 47 48 49 50
873
ASUS43 KBIS 271502
RWRBIS

NWR BROADCAST TEXT
NATIONAL WEATHER SERVICE BISMARCK ND
1000 AM CDT FRI MAY 27 2016

NOTE: "FAIR" INDICATES FEW OR NO CLOUDS BELOW 12,000 FEET WITH NO
SIGNIFICANT WEATHER AND/OR OBSTRUCTIONS TO VISIBILITY.


CITY           SKY/WX    TMP DP  RH WIND       PRES   REMARKS
WILLISTON      PTSUNNY   63  50  62 NE3       29.87S
MINOT          CLOUDY    62  53  72 NW8       29.82F
MINOT AFB      CLOUDY    57  54  88 NW12      29.82S
BISMARCK       SUNNY     61  52  72 N9        29.84S
DICKINSON      SUNNY     60  47  61 N6        29.84S
GARRISON         N/A     58  52  80 VRB3      29.84F
HETTINGER ARPT SUNNY     62  47  57 N8        29.86S
JAMESTOWN      MOSUNNY   62  54  74 NE12      29.82R
CARRINGTON     PTSUNNY   57  55  94 NW6       29.84S
MANDAN         FAIR      57  54  88 N8        29.85S
OAKES            N/A    N/A N/A N/A MISG        N/A
STANLEY        CLOUDY    57  57 100 N7        29.88S
$$

CITY           SKY/WX    TMP DP  RH WIND       PRES   REMARKS
GRAND FORKS    PTSUNNY   64  54  69 VRB3      29.81R
GRAND FORKS AF SUNNY     62  55  77 VRB2      29.82S
DEVILS LAKE    MOSUNNY   60  52  74 NW7       29.82S
FARGO          PTSUNNY   67  58  72 N8        29.79R
CAVALIER       FAIR      63  55  77 CALM      29.79S
GRAFTON        FAIR      64  57  77 VRB3      29.83R
GWINNER        FAIR      66  55  68 NE6       29.79S
LANGDON        CLOUDY    59  57  94 W8        29.80F
$$

CITY           SKY/WX    TMP DP  RH WIND       PRES   REMARKS
ABERDEEN       PTSUNNY   67  56  67 N9        29.78S
MOBRIDGE       MOSUNNY   63  51  65 N15       29.78R
BUFFALO          N/A     60  46  59 NW8       29.80S
RAPID CITY     MOSUNNY   58  45  62 N10       29.85S
GLASGOW        SUNNY     55  48  77 SE3       29.90F
SIDNEY         MOSUNNY   57  51  80 NE5       29.88S
WOLF POINT     MOSUNNY   61  51  70 E7        29.89S
GLENDIVE       CLOUDY    50  48  93 NE3       29.91R
MILES CITY     CLOUDY    54  50  86 W5        29.87F
BAKER          PTSUNNY   57  49  74 NW7       29.88S
$$

CITY           SKY/WX    TMP DP  RH WIND       PRES   REMARKS
BILLINGS       MOSUNNY   54  45  71 SW5       29.91S
GREAT FALLS    MOSUNNY   57  45  64 SW9       29.88S
$$





USA.gov is the U.S. government's official web portal to all federal, state and local government web resources and services.